Погода в Ваче

Россия / Нижегородская область     55°48′08″N   42°46′12″E
В апреле 2022 года жителям России запретили посещать сайт meteo.paraplan.net по решению Генеральной прокуратуры. Аудитория сайта уменьшилась в 10 раз. Владельцы сайта не видят смысла в поддержке погодного сервера в таких условиях. Сайт будет закрыт в октябре.
темп.,
°C
ветер,
м/с
пор.,
м/с
влажн.,
%
обл.,
%
осадки,
мм/ч
давл.,
гПа
погр.,
м
4 октября, вт
вт400:00+9ююв514800 0.0 1012553
03:00+9ююв514805 0.0 1013477
06:00+8юв5148231 0.0 1014443
09:00+11ююв61472100 0.0 1015761
12:00+15ююв61160100 0.0 10151257
15:00+15ююв61063100 0.0 10151241
18:00+13ююв61270100 0.0 1015867
21:00+12юв5128182 0.1 1014735
5 октября, ср
ср500:00+12ю51075100 0.1 1014830
03:00+11ю41088100 1.4 1014578
06:00+10ююз3989100 1.4 1014480
09:00+11ююз597599 1.6 10141224
12:00+12ююз5967100 0.2 10141410
15:00+11юз5872100 0.6 10141245
18:00+8ююз3790100 0.9 1015669
21:00+8юз3686100 1.6 1014890
6 октября, чт
чт600:00+7зюз3688100 0.7 1014649
03:00+6з478698 1.1 1015775
06:00+5з4792100 0.5 1015816
09:00+6зсз468567 0.8 1016646
12:00+6зсз4785100 0.1 1017821
15:00+9зсз3673100 0.2 1017986
18:00+8з3568100 0.0 1018170
21:00+5юз24845 0.0 101870
7 октября, пт
пт700:00+4ююз310894 0.0 1018216
03:00+6ююз41189100 0.0 1016317
06:00+8юз51298100 0.0 1014465
09:00+9зюз5119698 0.2 1015547
12:00+11з51081100 0.0 10171073
15:00+11зсз61170100 0.1 10191296
18:00+11з51166100 0.0 1020733
21:00+8з413850 0.0 1022473
8 октября, сб
сб800:00+7зюз411930 0.0 1023329
03:00+6зюз38979 0.0 1024204
06:00+5зюз379710 0.0 1025163
09:00+9зюз48830 0.0 1025323
12:00+13зюз57635 0.0 1024791
15:00+14юз47595 0.0 1023953
18:00+9ююз398023 0.0 1022199
21:00+8ююз41283100 0.0 1022317